Flag for U.S.A. Weather past 2 weeks in Simi Valley, California, U.S.A.

Now
65 °F

Clear.


Feels Like: 65 °F
Forecast: 61 / 81 °F
Wind: No wind

Location: Van Nuys Airport

Current Time: Sep 21, 2014 at 1:56:40 AM

Latest Report: Sep 21, 2014 at 12:51 AM


Visibility: 10 mi

Pressure: 29.93 "Hg

Humidity: 78%

Dew point: 58 °F

Location of Simi ValleyLocation

Historic Weather in Simi Valley — Graph

°F

Simi Valley temperature yesterday

Maximum temperature yesterday: 81 °F (at 3:51 PM)
Minimum temperature yesterday: 65 °F (at 5:51 AM)
Average temperature yesterday: 71 °F

Past Weeks' High & Low Weather Summary

 TemperatureHumidityPressure
High106 °F (Sep 14, 12:51 PM)85% (Sep 20, 5:51 AM)29.95 "Hg (Sep 20, 5:51 AM)
Low62 °F (Sep 10, 6:51 AM)11% (Sep 14, 12:51 PM)29.64 "Hg (Sep 16, 4:51 PM)
Average82 °F41%29.79 "Hg
* Reported Sep 6 12:51 AM — Sep 21 12:51 AM, Simi Valley, Weather by CustomWeather, © 2014

Note: Actual official high and low records may vary slightly from our data, if they occured in-between our weather recording intervals... More about our weather records

Advertising

Simi Valley weather history for previous 24 hours

 ConditionsComfort  
Time TempWeatherWind HumidityBarometerVisibility
12:51 AM
Sep 21
65 °FClear.No wind78%29.93 "Hg10 mi
11:51 PM
Sep 20
66 °FClear.No wind75%29.92 "Hg10 mi
10:51 PM67 °FClear.No wind76%29.92 "Hg10 mi
9:51 PM68 °FClear.No wind70%29.91 "Hg10 mi
8:51 PM69 °FClear.3 mph68%29.90 "Hg10 mi
7:51 PM70 °FSunny.6 mph66%29.88 "Hg10 mi
6:51 PM72 °FSunny.9 mph61%29.87 "Hg10 mi
5:51 PM76 °FSunny.10 mph54%29.85 "Hg10 mi
4:51 PM79 °FSunny.9 mph50%29.85 "Hg10 mi
3:51 PM81 °FSunny.8 mph47%29.85 "Hg10 mi
2:51 PM79 °FSunny.No wind50%29.87 "Hg10 mi
1:51 PM76 °FScattered clouds.No wind58%29.89 "Hg10 mi
12:51 PM73 °FOvercast.No wind64%29.92 "Hg10 mi
11:51 AM70 °FMostly cloudy.No wind71%29.94 "Hg9 mi
10:51 AM68 °FOvercast.No wind76%29.95 "Hg8 mi
5:51 AM65 °FClear.3 mph85%29.89 "Hg10 mi
4:51 AM66 °FClear.No wind81%29.88 "Hg10 mi
3:51 AM66 °FClear.No wind81%29.87 "Hg10 mi
2:51 AM67 °FClear.No wind79%29.87 "Hg10 mi
1:51 AM68 °FClear.No wind76%29.87 "Hg10 mi
Weather by CustomWeather, © 2014

See weather overviewHow to use our weather pages